GEFSSGP_500_meanwind_318.txt.gz
Wind_Speed
6 5 5 5 6 4 4 4 3 3 3 3 3 3 3 3 3 3 3 3 3 3 4 4 5 5 5 6 6 6 7 7 7 7 7 8 8 8 8 7 7 6 6 6 6 6 6 6 6
6 6 6 7 6 6 5 4 4 3 4 3 4 4 4 4 4 4 4 4 4 4 4 5 5 6 6 7 7 8 8 9 9 9 8 8 8 8 7 7 7 7 7 7 7 7 7 6 6
6 7 7 7 7 7 5 5 5 5 4 4 4 4 4 3 4 4 4 5 5 5 5 5 6 7 7 7 8 9 10 10 11 10 9 9 8 9 9 8 8 8 9 8 8 7 7 7 7
7 7 8 8 7 7 6 5 5 5 4 5 4 5 4 4 4 5 5 5 5 5 6 6 6 7 7 8 9 10 10 10 11 10 10 10 9 9 9 9 9 9 9 9 8 8 8 7 7
7 7 8 8 7 6 6 5 6 5 6 6 6 6 5 5 5 5 6 6 5 6 6 6 6 6 7 8 9 9 9 8 9 10 10 9 10 10 10 10 9 9 10 9 9 9 8 8 8
7 7 8 8 7 7 6 6 6 6 6 6 6 6 6 6 5 6 6 6 6 6 7 7 7 7 7 8 9 7 7 7 8 9 10 10 10 10 9 9 9 10 10 10 10 9 9 9 9
6 7 7 7 7 7 6 6 6 6 6 5 6 6 6 6 6 6 6 7 7 7 8 7 7 8 8 8 7 6 6 6 7 8 8 9 9 9 9 9 9 9 9 9 9 9 9 10 10
7 7 7 7 7 6 6 6 6 6 6 6 6 6 6 6 6 6 7 7 7 8 8 8 8 8 8 8 8 8 7 7 7 7 8 8 9 9 9 9 9 9 9 9 9 10 10 9 9
7 7 7 7 7 7 6 6 6 6 6 6 6 6 6 6 7 7 8 8 8 8 8 8 8 8 9 8 9 8 7 8 7 7 8 8 9 9 9 9 9 10 9 9 9 10 9 9 9
7 8 7 7 7 7 7 7 7 7 6 6 6 6 7 7 7 7 8 8 8 8 8 8 8 8 8 8 8 9 8 8 8 8 8 9 9 9 9 9 9 9 9 9 9 9 9 9 10
7 8 8 8 6 6 7 8 7 7 7 7 7 7 7 7 8 8 8 8 8 9 9 9 9 9 9 9 8 9 9 9 9 9 9 9 9 9 10 10 10 9 9 9 9 10 10 10 10
8 8 8 8 7 7 8 8 8 8 7 8 8 8 8 8 8 8 8 8 8 9 9 9 9 9 9 9 9 9 9 9 9 10 11 10 10 10 11 10 10 10 10 10 10 10 11 11 11
8 8 9 9 8 8 8 8 8 8 8 8 8 8 8 8 8 8 8 9 9 9 9 10 10 9 9 9 9 9 9 9 9 10 11 11 11 11 11 11 10 10 10 10 10 11 11 11 12
8 9 9 9 9 9 9 9 9 8 8 8 8 8 8 9 9 9 9 9 10 10 10 10 10 10 10 10 10 9 9 9 9 10 10 11 11 12 12 12 11 11 11 11 11 12 12 13 13
8 9 9 9 10 9 9 9 9 9 9 9 10 10 10 10 11 10 10 11 11 11 11 11 11 11 11 10 10 10 10 10 10 10 10 11 12 12 13 13 12 12 12 12 13 13 13 13 13
8 8 9 9 9 9 8 8 9 9 9 9 10 11 11 11 11 11 12 12 12 12 13 13 12 12 12 11 11 11 11 11 11 11 12 12 13 14 14 14 14 13 13 13 13 13 13 13 13
8 8 8 8 8 8 8 8 9 9 10 10 10 11 11 11 12 12 12 12 12 12 13 13 13 13 13 13 13 13 13 13 13 13 13 14 14 14 15 14 14 14 14 14 14 14 14 14 13
8 8 8 8 8 8 9 8 8 9 10 11 11 11 11 11 12 12 12 13 13 13 14 14 14 14 14 14 14 14 14 14 14 14 14 14 14 13 14 14 15 15 15 15 15 15 14 14 14
8 8 8 8 9 9 9 8 8 9 10 10 10 11 11 11 11 12 12 13 14 14 14 13 14 14 14 15 16 15 14 14 14 14 14 14 14 14 14 15 15 16 16 16 16 16 15 15 15
9 9 8 8 9 9 9 9 10 10 10 10 10 11 11 11 11 11 12 13 13 14 14 14 13 13 13 14 14 14 14 14 14 15 15 15 15 15 15 16 16 17 17 17 17 18 17 17 16
9 9 8 8 9 10 10 9 9 9 10 10 11 11 12 12 12 12 12 13 13 13 13 14 14 14 14 14 14 14 15 14 15 15 15 15 15 15 15 16 16 17 17 18 18 19 19 18 17
9 9 9 9 9 10 11 10 8 9 10 10 10 11 12 12 11 11 12 13 13 13 13 14 15 15 15 15 15 15 16 16 16 16 15 15 15 16 16 16 16 17 17 18 18 19 19 19 19
9 9 10 10 10 10 10 11 9 9 10 10 11 11 11 11 11 10 11 13 13 13 13 14 15 16 16 16 16 16 17 17 17 16 16 16 16 16 16 17 17 17 17 18 19 19 20 20 20
9 10 10 11 10 10 10 11 10 10 10 10 11 11 11 11 11 12 12 12 13 14 14 15 15 16 16 17 17 17 17 17 18 17 17 17 18 18 18 19 19 19 19 19 19 19 20 20 20
10 10 11 11 11 11 11 12 10 10 10 10 10 11 11 11 12 12 12 12 13 14 14 15 15 16 16 17 17 17 17 18 18 18 18 19 19 20 20 20 21 21 21 21 21 20 20 20 20
11 12 12 13 13 12 12 12 11 11 11 10 11 11 11 11 11 11 12 13 14 14 15 15 16 16 16 17 17 17 17 18 19 20 20 21 21 21 21 22 22 22 22 22 22 21 20 21 21
13 13 13 14 15 14 13 12 11 11 11 11 11 11 11 12 12 12 12 13 14 15 15 16 16 16 17 18 18 18 19 19 20 20 21 21 22 22 21 22 23 23 23 22 22 21 21 21 21
14 14 14 15 15 15 14 13 11 11 12 12 12 12 12 12 13 13 14 14 15 15 16 16 16 17 18 18 19 19 19 20 20 20 21 21 21 21 21 22 23 22 22 21 21 21 21 21 20
14 15 15 15 15 15 15 13 12 12 12 12 12 12 12 13 13 14 15 15 16 16 16 17 17 17 18 18 19 19 20 20 21 21 21 21 21 21 21 22 22 21 20 21 21 21 20 20 20
14 14 15 15 15 15 14 12 12 12 12 12 12 13 13 14 14 15 15 16 17 17 17 17 17 18 18 19 19 19 19 20 21 21 21 21 22 21 21 21 21 20 19 20 20 20 20 20 20

GEFSSGP_500_meanwind_324.txt.gz
Wind_Speed
6 6 6 6 6 5 5 5 5 5 4 4 4 4 4 4 3 3 3 3 3 4 4 5 5 5 5 5 5 5 5 5 5 4 4 4 4 4 4 4 5 5 5 5 5 5 5 5 5
7 7 8 7 7 6 6 6 6 6 5 5 5 5 5 4 4 4 4 4 4 4 5 5 5 5 6 6 6 6 7 7 6 6 6 6 6 6 6 6 6 6 6 6 6 6 6 6 6
7 8 9 8 8 7 7 6 6 6 5 5 5 5 4 4 4 4 4 5 5 5 5 5 6 6 6 7 7 8 8 8 8 7 7 7 8 8 7 7 7 6 7 7 7 7 7 6 7
8 8 9 8 8 8 7 7 7 6 6 6 6 6 5 5 5 5 5 5 6 6 5 5 6 7 7 7 8 9 9 9 9 9 9 9 9 9 8 8 8 7 7 8 8 8 8 8 7
8 8 8 8 8 8 7 6 7 6 6 6 6 5 5 5 5 6 5 5 6 6 6 6 6 6 6 7 8 9 9 9 9 9 9 9 9 9 9 8 8 8 9 9 8 8 8 8 8
7 7 8 8 8 8 7 7 7 7 6 5 6 5 5 5 5 5 5 6 6 6 7 7 7 7 7 7 8 9 9 8 8 8 8 9 9 9 8 8 9 9 9 9 8 8 8 8 9
8 7 7 7 7 7 7 7 7 7 7 6 6 6 6 6 6 6 6 6 6 7 7 7 7 7 8 8 8 6 5 5 6 7 7 8 8 8 8 9 9 9 9 9 9 9 9 8 8
8 7 7 7 7 7 7 7 7 7 6 6 6 6 6 6 7 6 7 7 7 7 7 7 7 7 7 7 7 6 4 4 4 6 7 7 8 8 8 8 9 9 9 9 10 9 10 9 9
7 7 8 8 8 8 8 7 7 7 7 7 7 7 7 7 7 6 7 8 8 8 8 7 7 7 7 7 7 7 5 5 5 6 7 7 8 8 8 8 8 9 9 9 9 10 10 9 9
7 7 7 8 8 8 8 8 8 7 8 8 8 7 7 7 7 7 8 8 8 8 8 7 7 7 7 8 7 7 7 6 7 7 7 8 8 9 9 9 9 9 9 9 9 9 10 10 10
7 8 8 8 8 8 9 9 9 8 8 8 7 7 7 7 8 9 9 8 8 8 8 8 8 8 7 7 8 8 8 8 9 9 8 8 9 9 10 10 10 9 9 10 10 10 10 10 11
9 8 8 9 9 8 8 9 9 9 9 8 8 8 9 9 9 9 9 9 8 8 8 9 9 8 8 8 9 9 9 9 9 9 9 9 9 10 10 10 10 10 10 11 11 11 11 11 11
9 9 9 9 9 9 9 9 9 9 9 9 9 9 9 10 10 10 9 9 9 9 9 9 10 10 9 9 10 9 9 9 10 10 10 10 10 11 11 11 11 11 12 12 12 12 12 12 12
9 9 9 9 9 9 9 9 10 9 9 9 10 9 9 9 10 10 10 10 10 10 10 10 10 11 10 10 11 11 11 10 10 11 11 11 11 12 12 12 13 13 13 13 13 13 14 14 14
10 10 10 10 10 9 9 10 10 10 9 9 10 10 10 10 10 10 10 10 11 11 11 11 11 12 12 12 12 12 12 12 12 12 12 12 12 13 13 14 14 14 14 14 14 14 14 15 15
10 10 10 10 10 10 10 10 11 10 10 9 9 10 10 11 11 11 11 12 12 12 12 12 12 13 13 13 13 13 13 13 13 13 13 13 13 13 14 15 15 15 15 15 15 15 15 15 15
10 10 9 9 9 9 10 10 10 10 10 10 10 10 11 11 12 11 11 12 12 12 12 13 13 13 14 14 14 14 13 13 13 14 14 14 14 14 15 15 15 15 15 15 16 16 16 16 16
10 10 10 9 10 10 10 10 11 11 10 11 11 11 12 12 12 12 12 12 12 12 12 13 14 14 14 14 14 14 15 15 14 15 15 15 15 15 15 16 16 15 15 15 15 16 16 16 16
10 10 10 10 10 10 10 10 11 11 11 11 11 12 12 11 12 12 12 12 12 12 13 14 14 14 14 14 14 14 15 15 15 15 15 15 15 16 16 16 16 16 16 16 16 17 17 17 17
10 10 10 10 10 10 10 10 10 11 11 11 11 11 12 11 12 12 13 13 13 13 13 14 14 14 14 14 14 14 15 14 15 16 15 16 16 16 16 16 16 16 16 16 16 16 17 18 18
10 11 10 10 11 11 11 10 11 11 11 12 12 12 13 12 12 12 12 13 13 13 13 14 14 14 14 14 15 15 15 15 16 16 16 16 16 16 17 17 17 17 17 17 17 17 17 17 18
11 11 12 12 12 12 12 11 10 11 11 12 12 12 12 13 13 13 12 13 13 13 14 14 14 14 14 15 15 15 16 16 16 17 16 17 17 17 18 18 18 18 18 18 18 19 19 19 19
12 12 12 12 13 12 12 12 11 11 12 12 12 12 13 13 13 13 13 13 13 13 14 14 14 14 15 15 16 16 16 16 17 17 18 18 19 19 19 19 19 19 19 19 20 20 20 20 21
12 12 12 13 13 13 13 13 12 12 13 12 12 12 12 13 13 13 13 14 14 14 14 14 14 15 15 16 16 17 16 17 17 17 18 19 19 20 20 20 20 20 20 20 21 21 21 21 21
13 13 13 14 14 14 14 14 13 12 12 12 12 12 12 12 13 13 14 15 14 13 13 14 14 15 15 15 16 16 16 17 17 18 18 19 20 20 20 21 20 20 21 21 21 21 21 21 22
14 14 14 15 15 15 14 14 12 13 12 12 13 13 12 12 13 13 13 13 13 13 13 14 15 15 15 15 15 16 17 17 18 18 19 20 20 20 21 21 20 20 20 21 21 22 22 22 22
15 15 15 16 16 16 15 14 12 13 13 13 13 13 13 13 13 13 13 14 14 14 14 15 16 17 16 16 16 17 18 19 19 20 19 19 20 20 21 21 21 21 21 21 21 21 21 21 21
15 15 15 16 17 17 16 15 13 13 14 14 13 13 13 13 14 14 14 15 16 15 16 17 17 18 18 18 18 18 19 20 20 21 20 20 20 20 21 21 21 21 21 21 21 21 21 20 21
16 16 16 17 18 18 17 15 14 14 14 14 13 13 13 14 14 15 15 16 17 16 17 17 17 18 18 18 18 19 20 21 21 22 22 21 21 20 20 21 21 22 22 21 21 21 21 20 21
17 17 17 18 19 19 19 16 15 15 15 15 14 14 14 15 15 15 16 16 17 17 18 18 18 18 18 19 19 20 21 21 22 23 23 22 21 21 21 21 22 22 22 22 21 21 21 21 21

GEFSSGP_500_meanwind_330.txt.gz
Wind_Speed
4 4 4 4 4 4 4 5 5 5 5 5 5 5 5 5 5 5 5 5 5 5 6 6 5 4 5 5 5 5 6 6 6 6 5 5 5 5 5 4 4 5 4 4 4 4 4 4 3
4 5 5 5 5 5 5 5 5 5 5 5 6 6 5 5 6 6 6 6 6 6 6 5 6 6 6 6 6 7 7 7 7 7 7 6 6 6 6 5 5 6 5 5 5 5 5 5 5
5 6 6 6 6 6 6 6 6 6 6 6 6 7 6 6 6 6 6 6 6 6 6 6 6 7 7 7 7 8 8 9 9 9 8 7 7 8 7 7 7 6 6 6 6 6 6 6 6
6 6 6 7 6 6 6 7 7 7 7 7 7 7 7 6 7 7 7 7 6 6 6 6 7 8 7 7 7 7 8 9 9 9 9 9 8 9 8 8 8 8 7 7 7 7 7 6 7
6 5 6 6 6 7 7 7 7 8 7 7 7 7 7 7 7 7 7 7 6 6 6 6 7 7 7 7 6 6 7 8 8 9 9 9 9 9 9 9 8 8 8 8 8 8 7 7 7
5 5 6 6 7 7 7 7 8 8 8 7 7 7 7 6 7 7 7 7 6 6 7 7 7 6 6 6 6 6 6 7 9 9 9 9 9 9 9 9 9 9 9 9 9 9 8 8 8
5 5 6 7 8 8 7 7 8 8 8 7 7 7 7 7 7 7 7 7 6 7 7 7 7 7 7 6 6 6 6 6 7 8 9 9 9 9 9 9 9 9 9 9 9 9 9 9 9
6 6 6 7 8 8 8 8 8 8 8 8 8 7 6 6 7 7 6 7 6 6 6 7 7 7 7 6 6 7 6 6 7 8 8 9 9 8 9 9 9 9 9 9 9 9 9 9 9
6 6 7 8 8 9 8 8 8 8 8 8 7 8 8 8 8 8 8 7 7 7 7 7 7 7 7 7 7 7 7 7 7 7 8 9 8 9 9 9 9 9 9 9 9 9 10 10 10
7 7 7 8 8 9 9 9 8 8 8 8 8 8 8 8 8 8 8 8 7 7 7 7 8 7 7 7 7 8 7 7 7 7 8 8 8 9 9 9 9 10 10 10 10 10 10 10 11
7 8 8 8 8 9 9 9 9 8 8 8 8 8 9 9 9 9 8 8 8 8 8 8 9 8 8 8 8 8 8 8 7 7 8 8 9 9 10 10 10 10 10 11 11 11 11 11 11
8 8 8 8 8 9 9 10 10 9 10 10 9 9 9 9 10 10 9 9 9 9 9 9 9 9 8 9 9 9 10 9 8 9 9 10 10 10 11 11 11 11 11 12 12 12 12 12 13
8 8 8 9 9 10 10 10 10 10 10 11 11 10 10 10 10 10 11 11 10 10 10 9 9 9 9 9 10 10 10 10 10 11 11 11 11 11 12 12 12 12 13 13 13 13 13 13 13
9 9 9 9 9 10 10 11 10 10 10 10 11 11 10 10 10 10 11 11 11 11 11 11 11 10 10 10 10 10 11 11 11 12 12 12 12 12 12 12 13 13 14 14 14 14 14 15 14
9 10 10 10 10 10 10 11 10 10 10 10 10 10 10 10 10 11 11 11 12 12 12 11 11 11 11 11 11 12 12 12 12 13 12 12 12 12 12 13 13 14 14 15 15 15 16 15 15
10 10 10 10 10 11 11 11 11 11 11 11 10 10 10 10 10 11 11 12 12 12 13 12 12 12 12 13 13 13 13 12 12 13 13 13 13 13 13 13 13 14 15 15 16 16 16 16 16
10 11 10 10 10 11 11 11 11 11 11 11 11 11 11 11 11 11 11 12 12 12 13 13 13 13 14 14 14 14 13 13 13 13 13 13 14 14 14 14 14 14 14 15 15 15 16 16 16
10 10 11 11 11 11 11 11 11 11 12 12 11 11 11 11 11 11 12 12 12 13 13 13 14 14 14 14 15 15 14 14 13 13 14 14 15 15 15 15 15 14 14 14 14 15 15 16 17
11 11 11 11 11 12 11 12 12 12 12 12 11 11 11 11 12 12 12 12 13 13 13 13 14 14 15 15 15 15 15 15 15 14 15 15 15 15 15 15 15 15 15 15 14 14 15 16 17
10 10 11 11 11 11 11 12 12 12 12 12 12 11 11 11 12 13 13 13 13 13 13 13 14 14 15 15 15 15 15 16 15 15 15 15 16 16 16 16 16 16 16 16 15 15 16 16 17
10 10 11 12 12 12 12 12 12 12 12 12 12 12 12 12 13 13 13 13 13 13 13 13 14 14 14 14 15 15 15 16 16 16 16 16 16 17 17 17 17 17 17 17 17 17 17 17 18
12 12 12 13 13 13 13 13 13 13 13 12 12 12 13 13 13 13 13 13 13 13 13 13 14 13 13 14 14 15 15 16 16 16 16 16 17 17 17 18 18 17 17 17 18 18 18 19 19
12 12 13 13 13 14 13 14 14 13 14 13 12 13 13 13 13 13 13 13 13 13 13 14 14 14 13 13 14 14 15 15 15 16 16 16 16 17 17 18 18 18 18 18 19 19 19 19 19
13 13 13 13 14 14 14 15 15 15 15 15 14 14 13 13 13 13 13 13 13 13 13 13 13 14 14 14 15 15 15 15 15 16 16 17 17 17 18 18 18 18 18 18 19 20 20 21 21
13 13 13 13 14 15 14 15 15 16 16 15 15 14 14 13 13 13 13 13 14 14 13 14 15 15 15 15 15 16 16 16 17 17 18 18 18 18 18 18 19 19 19 19 20 20 21 22 22
13 13 14 14 15 15 14 15 15 15 15 15 15 15 15 14 14 14 14 14 15 14 14 15 15 15 15 16 16 16 17 17 18 18 18 19 19 19 19 19 19 19 19 20 20 21 21 22 22
13 14 14 15 15 15 15 15 15 15 15 15 15 15 15 15 15 14 15 15 15 15 15 15 16 16 17 17 18 18 18 18 19 19 20 20 20 20 21 21 20 20 20 20 20 21 22 22 23
14 14 14 15 15 15 16 16 16 16 15 15 15 15 15 15 15 16 16 15 15 15 16 16 17 17 18 18 19 19 20 20 20 20 20 21 21 21 21 22 22 22 22 22 22 22 23 23 23
14 15 15 16 16 16 16 16 17 17 16 15 15 15 16 16 16 16 17 16 16 16 16 17 18 19 19 19 19 20 20 20 20 21 22 22 21 21 22 22 22 23 23 23 23 24 24 24 24
15 15 16 16 17 17 17 17 18 18 18 17 17 17 17 17 17 17 17 17 17 18 18 19 20 20 19 20 21 21 21 21 22 22 23 23 23 23 24 24 24 25 25 25 25 26 26 25 26

GEFSSGP_500_meanwind_336.txt.gz
Wind_Speed
4 4 4 4 4 5 4 5 4 5 6 6 6 7 6 6 6 7 7 7 7 7 7 8 8 8 8 8 8 8 8 7 7 7 7 6 5 5 5 4 4 5 5 5 6 6 5 4 4
5 5 5 5 5 5 5 5 5 6 6 6 6 6 6 7 7 7 7 7 8 8 7 8 8 8 9 9 9 9 9 8 8 8 8 7 7 6 6 5 5 6 6 6 6 7 6 5 5
6 6 6 6 6 6 6 6 6 6 6 7 7 6 7 7 8 8 8 8 8 8 8 8 8 9 9 10 10 10 9 9 9 8 9 8 7 7 7 6 6 7 7 7 7 7 7 7 7
6 6 6 6 5 7 8 7 7 8 7 7 7 7 7 8 8 9 9 9 9 9 9 8 9 9 10 10 10 11 11 10 9 8 8 8 8 8 7 7 7 7 8 7 7 7 8 8 8
6 7 6 6 6 7 7 7 8 8 8 8 8 8 8 8 8 8 9 9 9 9 9 9 9 10 9 9 9 10 10 9 9 8 8 9 9 8 8 8 8 8 8 8 8 8 8 9 9
7 6 7 7 7 8 8 8 8 8 8 9 9 9 9 9 8 8 8 9 9 10 10 10 9 9 9 8 8 8 8 8 8 8 9 8 9 9 9 9 8 8 9 9 9 9 9 9 10
6 6 7 7 8 8 8 8 8 9 9 9 9 9 9 9 8 8 9 9 9 9 9 9 9 8 8 8 7 7 7 8 8 8 8 9 9 9 9 9 9 9 9 9 9 9 9 10 10
7 7 7 8 9 9 8 8 9 9 10 10 10 9 8 9 9 9 9 9 8 8 8 9 9 8 8 8 7 8 8 8 8 9 9 9 9 9 9 9 9 9 9 9 10 10 10 10 10
7 7 7 7 8 9 9 10 10 10 10 10 10 10 9 10 10 10 10 10 9 9 9 9 8 8 8 8 8 8 8 9 9 10 10 10 9 9 9 9 9 8 9 9 10 10 10 11 11
8 8 8 8 9 9 9 10 10 10 11 11 10 10 10 10 10 10 10 11 11 10 10 9 8 8 8 8 9 9 9 10 10 11 11 11 10 10 10 9 9 9 9 10 11 11 12 12 12
8 8 9 9 10 10 10 10 10 10 11 11 11 10 10 11 11 11 10 11 11 10 10 9 9 9 9 9 9 10 9 9 10 10 11 11 11 11 10 10 10 10 11 11 12 12 12 13 13
9 9 10 10 10 10 10 10 10 10 11 11 11 11 11 12 11 11 11 10 11 11 11 10 9 10 10 10 10 10 9 10 11 11 11 11 11 11 11 11 11 11 12 12 13 13 13 13 13
9 9 10 10 10 10 11 11 11 11 12 12 12 12 11 11 11 11 11 11 11 11 11 10 10 10 10 10 10 11 10 10 11 11 11 10 10 11 12 12 12 12 13 13 14 14 14 14 14
9 10 10 11 11 12 12 12 12 12 13 13 13 13 12 11 11 11 11 11 11 11 11 11 11 11 11 11 11 11 11 11 10 11 10 10 10 11 12 13 13 13 14 14 15 15 15 15 15
10 10 10 11 11 12 13 13 13 13 13 14 14 13 13 13 13 12 12 12 12 12 12 12 12 12 12 12 12 12 12 12 12 11 11 11 11 12 14 14 14 15 15 15 15 15 15 15 16
10 11 11 11 12 12 13 12 12 13 13 13 13 13 13 13 13 12 12 12 12 12 12 12 13 13 13 13 13 13 13 13 13 13 12 12 13 13 14 15 15 15 16 16 15 15 15 15 15
10 11 12 12 12 12 13 13 13 13 13 14 13 13 13 12 12 12 12 12 12 12 12 13 13 14 14 14 14 14 14 14 14 14 14 14 13 14 14 15 15 16 16 15 15 15 15 15 15
10 11 12 12 12 13 14 14 13 13 13 13 13 14 13 12 12 13 13 13 13 13 13 13 13 14 14 14 14 14 14 14 14 14 14 14 14 14 14 15 15 15 15 15 16 16 16 15 15
11 11 12 13 13 14 14 15 14 14 14 14 14 14 14 14 13 13 14 14 14 14 14 13 13 13 13 13 14 14 14 14 14 14 14 14 14 14 14 14 15 15 16 16 16 17 17 17 16
11 12 13 13 13 14 14 15 15 14 15 15 14 14 15 15 14 14 14 15 14 14 14 14 13 13 13 13 14 14 14 14 14 14 14 14 15 15 15 15 16 16 16 17 18 18 18 18 18
12 12 12 13 14 15 15 15 16 15 15 15 15 16 16 16 15 15 15 15 14 14 14 14 13 14 14 14 14 15 15 15 15 15 15 15 15 16 16 16 17 17 18 18 18 18 19 19 19
12 12 12 13 14 15 14 16 16 16 16 16 16 17 17 16 16 16 15 15 15 15 15 14 14 14 15 15 15 15 16 15 15 16 16 16 16 17 17 18 18 18 19 19 19 19 19 20 19
13 13 13 13 13 14 15 17 17 16 16 17 18 17 17 17 16 16 16 16 16 15 15 15 15 15 15 15 15 16 16 16 16 16 17 17 17 17 18 18 18 19 19 19 19 18 19 19 19
13 13 14 14 14 14 14 16 17 17 17 18 18 18 18 18 18 17 17 17 17 16 16 16 16 16 16 16 16 16 16 16 17 17 17 17 18 18 18 19 19 19 19 19 19 18 19 19 20
13 13 14 14 14 15 14 17 18 18 18 18 18 18 18 19 19 18 18 18 18 17 16 16 17 17 17 17 16 16 16 16 17 17 18 18 18 19 19 19 19 19 19 19 19 19 20 20 21
14 14 14 14 13 14 15 18 19 19 19 18 19 19 19 20 20 19 19 19 18 18 18 18 17 17 17 17 16 17 17 17 18 18 19 18 19 19 20 20 20 20 20 20 20 20 21 22 22
15 15 14 14 14 14 15 17 20 20 19 19 19 20 20 20 20 20 20 19 19 19 19 18 18 18 18 18 18 18 18 19 19 19 20 20 20 21 21 22 22 22 22 21 21 22 22 23 23
15 15 15 15 15 16 16 16 19 19 19 19 20 20 21 20 21 21 21 20 20 20 20 19 19 20 19 19 19 19 19 19 20 21 21 21 22 23 23 23 23 23 23 23 23 23 23 24 24
15 16 16 16 16 17 17 19 20 21 21 21 21 20 21 21 22 22 21 21 21 22 22 21 20 21 21 22 22 21 21 21 22 22 22 23 23 23 24 24 24 24 25 25 25 25 26 26 26
16 16 16 17 17 18 18 19 20 21 21 21 21 21 21 22 22 21 21 21 22 22 23 23 23 23 23 23 23 23 23 24 24 23 24 24 25 26 25 25 26 26 26 26 27 27 27 27 27

GEFSSGP_500_meanwind_342.txt.gz
Wind_Speed
4 5 5 6 7 6 6 6 5 5 4 4 3 3 3 3 3 4 5 6 6 5 5 6 6 7 7 7 7 8 8 8 7 7 7 7 7 7 6 6 7 7 6 7 6 5 5 5 4
5 4 5 7 7 6 6 5 5 4 4 4 4 4 4 4 4 5 6 6 6 5 5 6 7 7 8 8 9 9 9 8 8 8 8 8 8 7 7 7 7 7 7 7 7 6 6 5 5
6 5 5 6 7 7 6 5 5 4 4 5 4 4 4 4 5 5 6 6 6 6 6 7 7 8 8 10 10 10 10 9 9 9 9 9 9 9 8 7 7 7 7 7 7 7 6 5 5
7 6 6 7 7 7 7 6 5 4 5 5 5 5 5 5 5 5 6 6 6 7 7 8 8 8 9 10 10 10 11 10 9 10 10 10 10 9 9 8 8 8 8 8 7 7 7 6 6
8 8 8 7 8 7 7 7 6 5 5 5 5 5 5 5 6 6 6 6 7 7 8 8 8 8 9 10 10 10 10 10 9 9 9 9 10 10 10 9 9 8 8 8 8 8 8 8 8
8 8 8 7 8 8 8 7 6 6 5 5 5 6 6 6 6 6 6 7 7 7 8 8 8 8 8 8 9 9 8 8 8 8 9 9 10 11 11 11 10 9 9 8 8 8 9 9 9
6 7 8 8 8 8 7 7 7 6 7 6 6 7 7 7 7 7 7 7 7 7 8 7 7 7 7 7 8 9 9 9 9 9 8 9 9 10 11 11 11 10 9 8 8 9 9 9 9
7 8 8 8 7 8 7 7 7 7 7 8 7 7 8 7 7 7 7 7 7 7 8 8 7 7 8 8 9 9 10 10 10 9 10 10 10 10 10 11 11 10 9 9 9 9 9 10 10
8 8 8 8 7 7 7 7 8 8 8 8 8 8 8 7 7 7 7 7 7 7 8 8 8 8 8 8 8 9 10 10 10 10 11 11 11 10 10 10 10 10 10 10 10 10 10 10 11
8 8 8 9 8 8 8 8 8 8 8 8 9 8 8 8 7 8 8 8 8 8 8 8 9 9 8 9 9 9 10 11 11 11 11 11 12 11 11 10 11 11 11 11 11 11 11 11 11
7 8 8 8 8 8 9 9 8 8 8 9 9 9 8 8 8 8 9 9 9 9 9 9 9 10 9 10 10 10 10 11 11 12 12 11 11 11 12 12 12 12 12 11 11 12 12 12 13
8 8 7 7 7 7 8 8 8 8 8 9 10 10 9 9 9 9 9 9 9 9 9 9 9 10 9 10 10 10 10 10 10 11 11 12 12 12 12 12 13 12 12 12 12 12 13 13 14
8 7 7 8 8 8 8 8 8 8 8 9 10 10 10 10 10 10 10 10 10 10 10 10 10 10 10 10 10 10 10 9 10 10 10 11 11 12 12 13 13 13 13 13 13 13 14 14 13
7 7 7 8 8 8 8 9 9 8 9 10 10 9 9 10 10 10 11 11 10 10 10 10 10 9 9 9 10 10 10 9 10 10 11 12 12 12 12 12 13 14 13 13 13 14 14 14 14
7 7 7 8 9 9 9 9 9 9 9 10 9 9 9 10 11 11 10 10 10 10 10 10 10 10 10 10 9 10 10 11 11 11 12 11 11 12 12 12 13 13 14 14 14 14 15 15 15
8 8 7 8 9 9 9 8 8 9 9 9 9 9 10 10 10 11 11 10 10 10 10 10 10 10 10 10 10 10 10 11 11 11 11 11 11 11 11 11 12 13 14 14 14 14 14 14 14
7 7 8 8 9 9 9 9 9 9 9 9 9 9 10 10 10 10 11 10 10 10 11 11 10 11 11 11 10 10 11 11 11 11 11 11 11 11 11 11 12 13 13 13 13 14 14 14 14
7 8 8 9 9 9 10 9 9 9 10 10 10 10 10 10 10 10 10 11 10 11 11 11 11 11 11 11 11 11 10 10 10 10 11 11 11 11 11 12 12 13 12 12 13 14 14 14 15
7 8 8 9 9 10 9 9 10 10 10 10 10 11 10 10 10 11 11 11 11 11 11 10 11 11 11 11 11 11 11 10 10 11 11 11 11 12 12 13 13 12 13 13 14 14 15 15 16
8 9 9 9 9 10 10 10 9 9 10 10 10 11 10 10 10 10 10 11 12 12 12 11 11 12 12 12 12 12 12 12 12 12 13 13 13 13 13 13 13 14 14 14 15 15 16 16 16
9 9 10 10 9 10 10 10 9 9 10 10 10 10 10 10 11 11 11 11 12 12 13 12 12 12 12 13 13 13 13 12 12 13 14 14 14 14 14 14 14 15 15 16 16 16 16 16 17
10 10 11 11 10 10 10 11 9 10 11 10 10 10 10 10 11 12 12 12 12 12 13 13 13 13 14 14 14 14 14 14 14 14 14 15 15 15 14 14 15 16 16 16 16 16 17 18 18
11 11 12 12 11 11 11 12 9 10 10 10 10 10 10 11 11 12 13 13 13 13 13 14 15 15 15 15 15 15 15 15 16 15 15 15 15 15 15 16 16 17 17 17 18 18 19 19 19
12 12 12 12 13 13 12 13 11 10 11 11 10 11 11 12 12 13 13 14 14 14 14 15 15 15 15 15 15 15 15 15 16 16 16 16 16 16 17 17 18 18 18 18 19 19 20 20 20
13 13 13 14 14 13 12 13 11 10 11 12 12 12 12 13 13 13 14 15 15 15 15 16 16 16 16 16 16 16 16 16 17 17 17 17 17 17 18 18 19 18 19 19 20 20 20 20 20
14 15 15 15 15 13 12 14 12 11 12 12 12 13 14 14 15 15 16 16 16 16 17 17 17 18 18 18 18 17 17 18 18 18 18 18 18 18 19 19 20 20 20 20 20 20 21 22 22
15 15 15 17 17 16 16 15 14 14 13 13 13 14 15 15 16 16 16 16 16 17 18 18 18 18 18 18 19 19 18 18 19 19 19 20 19 19 20 20 20 21 21 21 21 21 21 22 23
16 16 16 17 18 18 18 17 15 15 15 15 14 14 15 15 16 17 17 17 17 18 18 18 19 19 19 19 20 20 20 19 19 20 21 21 21 20 21 21 22 22 22 22 23 23 23 23 24
16 17 18 18 18 19 20 18 16 16 15 15 14 14 15 16 17 17 17 17 18 19 19 19 19 20 20 21 21 21 21 21 22 22 22 22 23 23 23 23 23 23 23 24 24 24 25 25 25
17 17 18 19 20 20 21 19 16 17 16 16 16 16 17 17 17 17 17 18 19 19 20 20 20 21 21 22 22 22 22 23 23 23 23 23 23 24 24 25 25 25 25 25 25 26 26 26 26